When you browse on this site, cookies collect data to enhance your experience and personalize the content and advertising you see.
Visit our Privacy Policy to learn more. By continuing to use the site, you agree to this use of cookies and data.
  • In Deutschland
  • Länderverzeichnis
  • Für 7 Tage
  • Wassertemperatur
  • Satellitenkarten
  • Wetterkarte
  • Widgets
  • user-avatar
    Anmelden

    Stündliche Wetter Lautaro

    Heute, 14 Dezember, Freitag

    Zeit Temperatur Niederschläge Wind Luftdruck Luftfeuchtigkeit
    00:00 +8°C° 0.1 mm 1 m/S 741 mmHg 98%
    01:00 +7°C° 0 mm 2 m/S 741 mmHg 98%
    02:00 +8°C° 0.3 mm 1 m/S 741 mmHg 98%
    03:00 +8°C° 0.3 mm 1 m/S 742 mmHg 98%
    04:00 +8°C° 0.3 mm 1 m/S 742 mmHg 98%
    05:00 +9°C° 0.1 mm 1 m/S 743 mmHg 97%
    06:00 +10°C° 0.1 mm 1 m/S 743 mmHg 96%
    07:00 +10°C° 0.1 mm 1 m/S 744 mmHg 95%
    08:00 +12°C° 0.2 mm 1 m/S 744 mmHg 87%
    09:00 +13°C° 0.2 mm 1 m/S 744 mmHg 80%
    10:00 +15°C° 0.2 mm 1 m/S 745 mmHg 72%
    11:00 +16°C° 0.1 mm 1 m/S 744 mmHg 64%
    12:00 +18°C° 0.1 mm 1 m/S 744 mmHg 56%
    13:00 +18°C° 0.1 mm 2 m/S 744 mmHg 49%
    14:00 +18°C° 0 mm 2 m/S 744 mmHg 48%
    15:00 +18°C° 0 mm 2 m/S 744 mmHg 47%
    16:00 +18°C° 0 mm 2 m/S 744 mmHg 46%
    17:00 +16°C° 0 mm 2 m/S 744 mmHg 53%
    18:00 +14°C° 0 mm 2 m/S 744 mmHg 60%
    19:00 +13°C° 0 mm 2 m/S 744 mmHg 67%
    20:00 +11°C° 0 mm 1 m/S 744 mmHg 74%
    21:00 +9°C° 0 mm 1 m/S 744 mmHg 82%
    22:00 +7°C° 0 mm 1 m/S 745 mmHg 89%
    23:00 +7°C° 0 mm 1 m/S 744 mmHg 90%

    Morgen, 15 Dezember, Samstag

    Zeit Temperatur Niederschläge Wind Luftdruck Luftfeuchtigkeit
    00:00 +7°C° 0 mm 1 m/S 744 mmHg 91%
    01:00 +6°C° 0 mm 1 m/S 743 mmHg 93%
    02:00 +6°C° 0 mm 1 m/S 743 mmHg 92%
    03:00 +6°C° 0 mm 1 m/S 743 mmHg 92%
    04:00 +6°C° 0 mm 1 m/S 742 mmHg 91%
    05:00 +8°C° 0 mm 1 m/S 742 mmHg 81%
    06:00 +11°C° 0 mm 1 m/S 742 mmHg 71%
    07:00 +13°C° 0 mm 1 m/S 742 mmHg 61%
    08:00 +16°C° 0 mm 1 m/S 742 mmHg 53%
    09:00 +19°C° 0 mm 1 m/S 742 mmHg 45%
    10:00 +21°C° 0 mm 2 m/S 741 mmHg 37%
    11:00 +23°C° 0 mm 2 m/S 741 mmHg 36%
    12:00 +24°C° 0 mm 2 m/S 741 mmHg 34%
    13:00 +25°C° 0 mm 2 m/S 741 mmHg 33%
    14:00 +25°C° 0 mm 2 m/S 741 mmHg 35%
    15:00 +24°C° 0 mm 3 m/S 740 mmHg 38%
    16:00 +24°C° 0 mm 3 m/S 740 mmHg 41%
    17:00 +20°C° 0 mm 2 m/S 740 mmHg 50%
    18:00 +18°C° 0 mm 2 m/S 740 mmHg 59%
    19:00 +15°C° 0 mm 1 m/S 741 mmHg 69%
    20:00 +14°C° 0 mm 1 m/S 741 mmHg 75%
    21:00 +13°C° 0 mm 1 m/S 741 mmHg 82%
    22:00 +11°C° 0 mm 1 m/S 741 mmHg 88%
    23:00 +11°C° 0 mm 1 m/S 740 mmHg 89%

    übermorgen, 16 Dezember, Sonntag

    Zeit Temperatur Niederschläge Wind Luftdruck Luftfeuchtigkeit
    00:00 +10°C° 0 mm 0 m/S 740 mmHg 89%
    01:00 +10°C° 0 mm 0 m/S 740 mmHg 90%
    02:00 +10°C° 0 mm 0 m/S 739 mmHg 90%
    03:00 +10°C° 0 mm 0 m/S 739 mmHg 90%
    04:00 +12°C° 0 mm 1 m/S 739 mmHg 90%
    05:00 +13°C° 0.1 mm 1 m/S 739 mmHg 89%
    06:00 +14°C° 0.1 mm 1 m/S 739 mmHg 88%
    07:00 +15°C° 0.1 mm 1 m/S 739 mmHg 86%
    08:00 +16°C° 0.1 mm 1 m/S 740 mmHg 86%
    09:00 +16°C° 0.1 mm 1 m/S 740 mmHg 85%
    10:00 +18°C° 0.1 mm 1 m/S 740 mmHg 84%
    11:00 +19°C° 0.1 mm 1 m/S 740 mmHg 81%
    12:00 +18°C° 0.1 mm 2 m/S 740 mmHg 78%
    13:00 +19°C° 0.1 mm 2 m/S 740 mmHg 75%
    14:00 +19°C° 0 mm 2 m/S 740 mmHg 70%
    15:00 +19°C° 0 mm 3 m/S 740 mmHg 65%
    16:00 +19°C° 0 mm 3 m/S 740 mmHg 60%
    17:00 +18°C° 0 mm 3 m/S 740 mmHg 65%
    18:00 +16°C° 0 mm 2 m/S 740 mmHg 69%
    19:00 +14°C° 0 mm 2 m/S 741 mmHg 74%
    20:00 +12°C° 0 mm 2 m/S 741 mmHg 79%
    21:00 +11°C° 0 mm 1 m/S 741 mmHg 85%
    22:00 +9°C° 0 mm 1 m/S 742 mmHg 90%
    23:00 +9°C° 0 mm 1 m/S 742 mmHg 90%

    17 Dezember, Montag

    Zeit Temperatur Niederschläge Wind Luftdruck Luftfeuchtigkeit
    00:00 +8°C° 0 mm 1 m/S 742 mmHg 89%
    01:00 +8°C° 0 mm 1 m/S 741 mmHg 89%
    02:00 +7°C° 0 mm 1 m/S 742 mmHg 89%
    03:00 +7°C° 0 mm 1 m/S 742 mmHg 89%
    04:00 +6°C° 0 mm 1 m/S 742 mmHg 89%
    05:00 +8°C° 0 mm 1 m/S 742 mmHg 80%
    06:00 +10°C° 0 mm 1 m/S 742 mmHg 72%
    07:00 +12°C° 0 mm 2 m/S 742 mmHg 64%
    08:00 +15°C° 0 mm 2 m/S 742 mmHg 56%
    09:00 +18°C° 0 mm 2 m/S 742 mmHg 48%
    10:00 +23°C° 0 mm 2 m/S 742 mmHg 40%
    11:00 +24°C° 0 mm 3 m/S 741 mmHg 37%
    12:00 +26°C° 0 mm 3 m/S 741 mmHg 33%
    13:00 +28°C° 0 mm 3 m/S 740 mmHg 30%
    14:00 +27°C° 0 mm 3 m/S 740 mmHg 32%
    15:00 +27°C° 0 mm 3 m/S 740 mmHg 33%
    16:00 +26°C° 0 mm 3 m/S 740 mmHg 35%
    17:00 +24°C° 0 mm 3 m/S 740 mmHg 42%
    18:00 +20°C° 0 mm 2 m/S 740 mmHg 49%
    19:00 +17°C° 0 mm 2 m/S 740 mmHg 56%
    20:00 +15°C° 0 mm 2 m/S 740 mmHg 60%
    21:00 +13°C° 0 mm 1 m/S 740 mmHg 64%
    22:00 +11°C° 0 mm 1 m/S 741 mmHg 68%
    23:00 +10°C° 0 mm 1 m/S 740 mmHg 69%

    18 Dezember, Dienstag

    Zeit Temperatur Niederschläge Wind Luftdruck Luftfeuchtigkeit
    00:00 +10°C° 0 mm 1 m/S 740 mmHg 70%
    01:00 +9°C° 0 mm 1 m/S 739 mmHg 71%
    02:00 +8°C° 0 mm 1 m/S 739 mmHg 72%
    03:00 +7°C° 0 mm 1 m/S 739 mmHg 74%
    04:00 +7°C° 0 mm 1 m/S 739 mmHg 75%
    05:00 +9°C° 0 mm 1 m/S 739 mmHg 69%
    06:00 +12°C° 0 mm 1 m/S 739 mmHg 62%
    07:00 +14°C° 0 mm 1 m/S 739 mmHg 55%
    08:00 +18°C° 0 mm 1 m/S 739 mmHg 49%
    09:00 +20°C° 0 mm 2 m/S 738 mmHg 42%
    10:00 +24°C° 0 mm 2 m/S 738 mmHg 36%
    11:00 +26°C° 0 mm 2 m/S 738 mmHg 33%
    12:00 +27°C° 0 mm 2 m/S 738 mmHg 31%
    13:00 +29°C° 0 mm 3 m/S 737 mmHg 29%
    14:00 +28°C° 0 mm 3 m/S 737 mmHg 32%
    15:00 +28°C° 0 mm 3 m/S 737 mmHg 35%
    16:00 +27°C° 0 mm 3 m/S 737 mmHg 38%
    17:00 +24°C° 0 mm 2 m/S 737 mmHg 49%
    18:00 +21°C° 0 mm 2 m/S 737 mmHg 59%
    19:00 +18°C° 0 mm 2 m/S 738 mmHg 70%
    20:00 +16°C° 0 mm 1 m/S 738 mmHg 76%
    21:00 +15°C° 0 mm 1 m/S 738 mmHg 83%
    22:00 +13°C° 0 mm 1 m/S 738 mmHg 90%
    23:00 +12°C° 0 mm 1 m/S 738 mmHg 91%

    19 Dezember, Mittwoch

    Zeit Temperatur Niederschläge Wind Luftdruck Luftfeuchtigkeit
    00:00 +12°C° 0 mm 1 m/S 738 mmHg 93%
    01:00 +11°C° 0 mm 1 m/S 737 mmHg 95%
    02:00 +11°C° 0 mm 1 m/S 737 mmHg 95%
    03:00 +11°C° 0 mm 1 m/S 738 mmHg 95%
    04:00 +10°C° 0 mm 1 m/S 738 mmHg 95%
    05:00 +12°C° 0 mm 1 m/S 738 mmHg 90%
    06:00 +14°C° 0 mm 1 m/S 738 mmHg 84%
    07:00 +15°C° 0 mm 1 m/S 738 mmHg 78%
    08:00 +17°C° 0 mm 2 m/S 738 mmHg 71%
    09:00 +19°C° 0 mm 2 m/S 739 mmHg 64%
    10:00 +21°C° 0 mm 2 m/S 739 mmHg 57%
    11:00 +21°C° 0 mm 2 m/S 739 mmHg 54%
    12:00 +23°C° 0 mm 2 m/S 739 mmHg 52%
    13:00 +24°C° 0 mm 3 m/S 739 mmHg 49%
    14:00 +24°C° 0 mm 3 m/S 739 mmHg 49%
    15:00 +22°C° 0 mm 3 m/S 739 mmHg 50%
    16:00 +22°C° 0 mm 3 m/S 739 mmHg 50%
    17:00 +20°C° 0 mm 2 m/S 740 mmHg 58%
    18:00 +18°C° 0 mm 2 m/S 740 mmHg 67%
    19:00 +16°C° 0 mm 2 m/S 741 mmHg 75%
    20:00 +14°C° 0 mm 1 m/S 741 mmHg 82%
    21:00 +12°C° 0 mm 1 m/S 741 mmHg 88%
    22:00 +11°C° 0 mm 1 m/S 741 mmHg 95%
    23:00 +11°C° 0 mm 1 m/S 741 mmHg 96%
    Mehr zeigen